Back to catalog

STARLINK-2354

AliveCommunicationsVLEO
NORAD 47894·PAYLOAD·🇺🇸 United States

Launched Mar 14, 2021 from Cape Canaveral Space Force Station

Loading…

Next Passes (next 24 hours)

TLE

FreshSource: CelesTrak SupGP

Epoch: Sep 14, 2026, 13:56 UTC

1 47894C 21021AL  26257.58104167  .00062335  00000+0  14820-2 0  2574
2 47894  53.1474 104.9026 0004727 118.9807 320.7892 15.41035831    17

Track STARLINK-2354 in real time with AllMySat

Download on the App Store